When you browse on this site, cookies collect data to enhance your experience and personalize the content and advertising you see.
Visit our Privacy Policy to learn more. By continuing to use the site, you agree to this use of cookies and data.
  • In Hungary
  • List of Countries
  • For 7 days
  • Water Temperature
  • Weather Map
  • News
  • Weather Widgets
  • user-avatar
    Login

    Hourly Weather Solaleyka

    Today, 14 October, Monday

    Time Temperature Precipitation Wind Pressure Humidity
    00:00 +5°C° 0 mm 4 mps 737 mmHg 88%
    01:00 +5°C° 0 mm 5 mps 737 mmHg 90%
    02:00 +5°C° 0 mm 5 mps 737 mmHg 91%
    03:00 +4°C° 0 mm 6 mps 737 mmHg 94%
    04:00 +4°C° 0 mm 6 mps 737 mmHg 93%
    05:00 +4°C° 0 mm 6 mps 738 mmHg 93%
    06:00 +4°C° 0 mm 6 mps 738 mmHg 92%
    07:00 +5°C° 0 mm 6 mps 738 mmHg 88%
    08:00 +6°C° 0 mm 7 mps 739 mmHg 84%
    09:00 +6°C° 0 mm 7 mps 739 mmHg 80%
    10:00 +8°C° 0.1 mm 7 mps 740 mmHg 78%
    11:00 +8°C° 0.1 mm 7 mps 740 mmHg 75%
    12:00 +8°C° 0.1 mm 7 mps 740 mmHg 73%
    13:00 +8°C° 0.1 mm 7 mps 741 mmHg 76%
    14:00 +8°C° 0.1 mm 7 mps 741 mmHg 79%
    15:00 +6°C° 0.1 mm 7 mps 741 mmHg 82%
    16:00 +6°C° 0 mm 7 mps 741 mmHg 83%
    17:00 +6°C° 0 mm 7 mps 742 mmHg 84%
    18:00 +7°C° 0 mm 6 mps 742 mmHg 85%
    19:00 +5°C° 0 mm 6 mps 742 mmHg 86%
    20:00 +6°C° 0 mm 5 mps 742 mmHg 87%
    21:00 +5°C° 0 mm 5 mps 743 mmHg 89%
    22:00 +5°C° 0 mm 4 mps 742 mmHg 90%
    23:00 +5°C° 0 mm 4 mps 742 mmHg 91%

    Tomorrow, 15 October, Tuesday

    Time Temperature Precipitation Wind Pressure Humidity
    00:00 +4°C° 0 mm 4 mps 742 mmHg 92%
    01:00 +4°C° 0 mm 4 mps 742 mmHg 92%
    02:00 +4°C° 0 mm 3 mps 742 mmHg 93%
    03:00 +4°C° 0 mm 3 mps 741 mmHg 93%
    04:00 +5°C° 0.9 mm 4 mps 740 mmHg 94%
    05:00 +5°C° 0.9 mm 5 mps 739 mmHg 95%
    06:00 +5°C° 0.9 mm 5 mps 738 mmHg 96%
    07:00 +6°C° 1.6 mm 5 mps 737 mmHg 97%
    08:00 +7°C° 1.6 mm 5 mps 737 mmHg 97%
    09:00 +8°C° 1.6 mm 5 mps 736 mmHg 97%
    10:00 +9°C° 0.6 mm 6 mps 736 mmHg 95%
    11:00 +10°C° 0.6 mm 6 mps 735 mmHg 93%
    12:00 +11°C° 0.6 mm 7 mps 735 mmHg 90%
    13:00 +11°C° 0.7 mm 6 mps 736 mmHg 91%
    14:00 +10°C° 0.7 mm 5 mps 736 mmHg 92%
    15:00 +11°C° 0.7 mm 4 mps 736 mmHg 92%
    16:00 +9°C° 0.3 mm 5 mps 737 mmHg 92%
    17:00 +8°C° 0.3 mm 5 mps 737 mmHg 92%
    18:00 +8°C° 0.3 mm 6 mps 738 mmHg 92%
    19:00 +7°C° 0.1 mm 6 mps 739 mmHg 90%
    20:00 +5°C° 0.1 mm 6 mps 740 mmHg 88%
    21:00 +5°C° 0.1 mm 6 mps 740 mmHg 86%
    22:00 +5°C° 0 mm 5 mps 741 mmHg 86%
    23:00 +5°C° 0 mm 5 mps 742 mmHg 87%

    Day after tomorrow, 16 October, Wednesday

    Time Temperature Precipitation Wind Pressure Humidity
    00:00 +3°C° 0 mm 5 mps 742 mmHg 87%
    01:00 +2°C° 0 mm 5 mps 743 mmHg 85%
    02:00 +2°C° 0 mm 5 mps 744 mmHg 84%
    03:00 +1°C° 0 mm 5 mps 744 mmHg 82%
    04:00 +1°C° 0 mm 5 mps 745 mmHg 84%
    05:00 +1°C° 0 mm 5 mps 745 mmHg 86%
    06:00 +1°C° 0 mm 5 mps 746 mmHg 88%
    07:00 +1°C° 0 mm 6 mps 746 mmHg 85%
    08:00 +2°C° 0 mm 6 mps 747 mmHg 81%
    09:00 +2°C° 0 mm 6 mps 748 mmHg 77%
    10:00 +2°C° 0 mm 6 mps 748 mmHg 75%
    11:00 +2°C° 0 mm 6 mps 748 mmHg 74%
    12:00 +3°C° 0 mm 5 mps 749 mmHg 73%
    13:00 +2°C° 0 mm 5 mps 749 mmHg 73%
    14:00 +2°C° 0 mm 5 mps 749 mmHg 73%
    15:00 +2°C° 0 mm 5 mps 750 mmHg 73%
    16:00 +1°C° 0 mm 4 mps 750 mmHg 77%
    17:00 0°C° 0 mm 4 mps 750 mmHg 81%
    18:00 +1°C° 0 mm 3 mps 751 mmHg 85%
    19:00 +1°C° 0 mm 3 mps 751 mmHg 83%
    20:00 +2°C° 0 mm 2 mps 751 mmHg 82%
    21:00 +2°C° 0 mm 2 mps 752 mmHg 80%
    22:00 +1°C° 0 mm 2 mps 752 mmHg 82%
    23:00 +1°C° 0 mm 2 mps 752 mmHg 85%

    17 October, Thursday

    Time Temperature Precipitation Wind Pressure Humidity
    00:00 +1°C° 0 mm 1 mps 752 mmHg 87%
    01:00 +1°C° 0 mm 1 mps 752 mmHg 87%
    02:00 +1°C° 0 mm 1 mps 752 mmHg 86%
    03:00 +1°C° 0 mm 1 mps 753 mmHg 86%
    04:00 +1°C° 0 mm 1 mps 753 mmHg 86%
    05:00 +1°C° 0 mm 1 mps 753 mmHg 86%
    06:00 +1°C° 0 mm 1 mps 753 mmHg 86%
    07:00 +1°C° 0 mm 2 mps 752 mmHg 84%
    08:00 +1°C° 0 mm 3 mps 752 mmHg 82%
    09:00 +1°C° 0 mm 4 mps 752 mmHg 81%
    10:00 +1°C° 0.2 mm 4 mps 752 mmHg 82%
    11:00 +1°C° 0.2 mm 5 mps 751 mmHg 84%
    12:00 +1°C° 0.2 mm 6 mps 751 mmHg 85%
    13:00 +2°C° 0.1 mm 6 mps 750 mmHg 82%
    14:00 +2°C° 0.1 mm 6 mps 749 mmHg 79%
    15:00 +3°C° 0.1 mm 7 mps 748 mmHg 76%
    16:00 +3°C° 0 mm 7 mps 748 mmHg 75%
    17:00 +3°C° 0 mm 7 mps 747 mmHg 74%
    18:00 +2°C° 0 mm 8 mps 746 mmHg 74%
    19:00 +2°C° 0 mm 8 mps 746 mmHg 73%
    20:00 +2°C° 0 mm 8 mps 745 mmHg 72%
    21:00 +2°C° 0 mm 9 mps 744 mmHg 72%
    22:00 +2°C° 0 mm 8 mps 744 mmHg 71%
    23:00 +2°C° 0 mm 8 mps 743 mmHg 70%

    18 October, Friday

    Time Temperature Precipitation Wind Pressure Humidity
    00:00 +2°C° 0 mm 8 mps 742 mmHg 69%
    01:00 +2°C° 0.1 mm 8 mps 742 mmHg 69%
    02:00 +2°C° 0.1 mm 8 mps 741 mmHg 70%
    03:00 +2°C° 0.1 mm 8 mps 740 mmHg 71%
    04:00 +2°C° 0.3 mm 8 mps 740 mmHg 76%
    05:00 +2°C° 0.3 mm 8 mps 739 mmHg 81%
    06:00 +2°C° 0.3 mm 8 mps 739 mmHg 86%
    07:00 +4°C° 0.1 mm 8 mps 739 mmHg 86%
    08:00 +4°C° 0.1 mm 7 mps 739 mmHg 87%
    09:00 +4°C° 0.1 mm 7 mps 740 mmHg 88%
    10:00 +3°C° 0 mm 7 mps 740 mmHg 82%
    11:00 +2°C° 0 mm 7 mps 740 mmHg 77%
    12:00 0°C° 0 mm 7 mps 741 mmHg 72%
    13:00 0°C° 0 mm 7 mps 741 mmHg 71%
    14:00 0°C° 0 mm 7 mps 742 mmHg 70%
    15:00 0°C° 0 mm 8 mps 742 mmHg 69%
    16:00 -1°C° 0 mm 8 mps 743 mmHg 71%
    17:00 -1°C° 0 mm 8 mps 743 mmHg 74%
    18:00 -2°C° 0 mm 8 mps 744 mmHg 76%
    19:00 -2°C° 0 mm 8 mps 744 mmHg 77%
    20:00 -3°C° 0 mm 7 mps 744 mmHg 78%
    21:00 -3°C° 0 mm 7 mps 745 mmHg 79%
    22:00 -3°C° 0 mm 7 mps 745 mmHg 79%
    23:00 -4°C° 0 mm 8 mps 746 mmHg 80%

    19 October, Saturday

    Time Temperature Precipitation Wind Pressure Humidity
    00:00 -5°C° 0 mm 8 mps 746 mmHg 80%
    01:00 -5°C° 0 mm 8 mps 746 mmHg 79%
    02:00 -5°C° 0 mm 8 mps 747 mmHg 77%
    03:00 -4°C° 0 mm 7 mps 747 mmHg 76%
    04:00 -4°C° 0 mm 7 mps 748 mmHg 78%
    05:00 -5°C° 0 mm 6 mps 748 mmHg 80%
    06:00 -5°C° 0 mm 6 mps 749 mmHg 81%
    07:00 -5°C° 0 mm 6 mps 749 mmHg 78%
    08:00 -4°C° 0 mm 6 mps 750 mmHg 75%
    09:00 -4°C° 0 mm 6 mps 750 mmHg 71%
    10:00 -3°C° 0 mm 6 mps 751 mmHg 66%
    11:00 -2°C° 0 mm 6 mps 751 mmHg 60%
    12:00 0°C° 0 mm 5 mps 751 mmHg 54%
    13:00 0°C° 0 mm 5 mps 751 mmHg 54%
    14:00 0°C° 0 mm 5 mps 752 mmHg 54%
    15:00 0°C° 0 mm 4 mps 752 mmHg 54%
    16:00 -1°C° 0 mm 4 mps 752 mmHg 59%
    17:00 -1°C° 0 mm 3 mps 752 mmHg 64%
    18:00 -2°C° 0 mm 2 mps 753 mmHg 69%
    19:00 -2°C° 0 mm 2 mps 753 mmHg 69%
    20:00 -3°C° 0 mm 2 mps 753 mmHg 69%
    21:00 -1°C° 0 mm 1 mps 753 mmHg 69%
    22:00 -1°C° 0 mm 1 mps 753 mmHg 68%
    23:00 -1°C° 0 mm 1 mps 753 mmHg 67%
    Show more